Madrid, Spain

2:30 AM CET on February 23, 2018 (GMT +0100)
Madrid-Barajas Airport

Weather History for LEMD - February, 2013

Change the Weather History Date:

Sunday, February 10, 2013

  Actual Average Record
Temperature  
Mean Temperature 39 °F -  
Max Temperature 50 °F 55 °F 60 °F (2000)
Min Temperature 28 °F 35 °F 21 °F (2012)
Degree Days  
Heating Degree Days 26    
Moisture  
Dew Point 32 °F    
Average Humidity 76    
Maximum Humidity 93    
Minimum Humidity 40    
Precipitation  
Precipitation 0.00 in 0.05 in - ()
Sea Level Pressure  
Sea Level Pressure 30.00 in    
Wind  
Wind Speed 8 mph ()    
Max Wind Speed 32 mph    
Max Gust Speed 46 mph    
Visibility 7.5 miles    
Events Rain    
Averages and records for this station are not official NWS values.
T = Trace of Precipitation, MM = Missing Value Source: Averaged Metar Reports

Daily Weather History Graph

Daily Weather History Graph

Search for Another Location

Airport or City:

Trip Planner

Search our weather history database for the weather conditions in past years. The results will help you decide how hot, cold, wet, or windy it might be!

Date:

Astronomy

Feb. 10, 2013 Rise Set
Actual Time 8:13 AM CET 6:43 PM CET
Civil Twilight 7:45 AM CET 7:11 PM CET
Nautical Twilight 7:13 AM CET 7:43 PM CET
Astronomical Twilight 6:41 AM CET 8:15 PM CET
Moon 7:54 AM CET (2/10) 7:18 PM CET (2/10)
Length of Visible Light 11h 26m
Length of Day
10h 29m
New Moon, 0% of the Moon is Illuminated
Feb 10
New Moon
Feb 17
First Quarter
Feb 25
Full
Mar 4
Last Quarter
Mar 11
New

Hourly Weather History & Observations

Time (CET) Temp. Windchill Dew Point Humidity Pressure Visibility Wind Dir Wind Speed Gust Speed Precip Events Conditions
12:00 AM 32.0 °F 28.7 °F 26.6 °F 80% 30.21 in - ENE 3.5 mph - N/A   Clear
12:30 AM 30.2 °F - 24.8 °F 80% 30.21 in - Calm Calm - N/A   Clear
1:00 AM 31 °F - 25 °F 69% 30.33 in 19 mi North 4.6 mph - -   Clear
1:00 AM 30.2 °F 26.7 °F 26.6 °F 86% 30.21 in - North 3.5 mph - N/A   Clear
1:30 AM 32.0 °F 28.7 °F 26.6 °F 80% 30.21 in - North 3.5 mph - N/A   Clear
2:00 AM 30.2 °F - 26.6 °F 86% 30.21 in - Calm Calm - N/A   Clear
2:30 AM 30.2 °F - 24.8 °F 80% 30.18 in - Calm Calm - N/A   Clear
3:00 AM 30.2 °F - 24.8 °F 80% 30.18 in - North 1.2 mph - N/A   Clear
3:30 AM 28.4 °F 24.6 °F 24.8 °F 86% 30.18 in - North 3.5 mph - N/A   Clear
4:00 AM 28.4 °F - 26.6 °F 93% 30.18 in - Calm Calm - N/A   Clear
4:30 AM 30.2 °F - 26.6 °F 86% 30.15 in - South 1.2 mph - N/A   Clear
5:00 AM 30.2 °F - 26.6 °F 86% 30.15 in - Variable 1.2 mph - N/A   Clear
5:30 AM 30.2 °F - 26.6 °F 86% 30.15 in - Variable 1.2 mph - N/A   Clear
6:00 AM 30.2 °F - 26.6 °F 86% 30.12 in - Variable 1.2 mph - N/A   Clear
6:30 AM 30.2 °F - 28.4 °F 93% 30.12 in - North 2.3 mph - N/A   Clear
7:00 AM 29 °F - 25 °F 78% 30.25 in 19 mi NNW 4.6 mph - -   Mostly Cloudy
7:00 AM 30.2 °F 25.4 °F 26.6 °F 86% 30.12 in - North 4.6 mph - N/A   Clear
7:30 AM 30.2 °F 26.7 °F 26.6 °F 86% 30.12 in - North 3.5 mph - N/A   Clear
8:00 AM 30.2 °F - 28.4 °F 93% 30.12 in - North 2.3 mph - N/A   Clear
8:30 AM 30.2 °F - 26.6 °F 86% 30.12 in - Variable 2.3 mph - N/A   Clear
9:00 AM 32.0 °F - 28.4 °F 87% 30.09 in - Calm Calm - N/A   Clear
9:30 AM 33.8 °F - 28.4 °F 81% 30.12 in - South 2.3 mph - N/A   Clear
10:00 AM 37.4 °F 34.9 °F 30.2 °F 75% 30.09 in - SSE 3.5 mph - N/A   Clear
10:30 AM 41.0 °F 37.1 °F 32.0 °F 70% 30.09 in - South 5.8 mph - N/A   Clear
11:00 AM 41.0 °F 35.8 °F 32.0 °F 70% 30.09 in - South 8.1 mph - N/A   Clear
11:30 AM 42.8 °F 38.0 °F 33.8 °F 70% 30.06 in - South 8.1 mph - N/A   Clear
12:00 PM 46.4 °F 42.4 °F 32.0 °F 57% 30.06 in 6.2 mi SSW 8.1 mph - N/A   Partly Cloudy
12:30 PM 48.2 °F - 32.0 °F 54% 30.04 in 6.2 mi South 15.0 mph 29.9 mph N/A   Mostly Cloudy
1:00 PM 48 °F - 31 °F 40% 30.03 in 13 mi WSW 19.6 mph - -   Mostly Cloudy
1:00 PM 48.2 °F - 30.2 °F 50% 30.01 in 6.2 mi WSW 18.4 mph 36.8 mph N/A   Mostly Cloudy
1:30 PM 48.2 °F - 30.2 °F 50% 29.98 in 6.2 mi South 18.4 mph - N/A   Mostly Cloudy
2:00 PM 50.0 °F - 30.2 °F 47% 29.95 in 6.2 mi SW 21.9 mph - N/A   Scattered Clouds
2:30 PM 48.2 °F - 30.2 °F 50% 29.95 in 6.2 mi South 24.2 mph - N/A   Mostly Cloudy
3:00 PM 48.2 °F - 32.0 °F 54% 29.92 in 6.2 mi South 15.0 mph - N/A   Mostly Cloudy
3:30 PM 48.2 °F - 32.0 °F 54% 29.89 in 6.2 mi WSW 21.9 mph - N/A   Mostly Cloudy
4:00 PM 48.2 °F - 32.0 °F 54% 29.86 in 6.2 mi WSW 25.3 mph - N/A   Scattered Clouds
4:30 PM 48.2 °F - 33.8 °F 58% 29.83 in 6.2 mi SW 32.2 mph 46.0 mph N/A   Scattered Clouds
5:00 PM 46.4 °F 37.7 °F 35.6 °F 66% 29.83 in 6.2 mi WSW 26.5 mph - N/A   Scattered Clouds
5:30 PM 44.6 °F 35.5 °F 39.2 °F 81% 29.83 in 6.2 mi WSW 25.3 mph 39.1 mph N/A   Scattered Clouds
6:00 PM 44.6 °F 36.1 °F 39.2 °F 81% 29.83 in 6.2 mi WSW 21.9 mph - N/A   Mostly Cloudy
6:30 PM 44.6 °F 35.7 °F 37.4 °F 76% 29.80 in 6.2 mi WSW 24.2 mph 35.7 mph N/A   Scattered Clouds
7:00 PM 44 °F - 37 °F 69% 29.83 in 19 mi WSW 25.3 mph - -   Scattered Clouds
7:00 PM 44.6 °F 35.7 °F 39.2 °F 81% 29.77 in 6.2 mi WSW 24.2 mph - N/A   Scattered Clouds
7:30 PM 44.6 °F 35.9 °F 39.2 °F 81% 29.80 in 6.2 mi WSW 23.0 mph - N/A   Mostly Cloudy
7:54 PM 44.6 °F 36.9 °F 41.0 °F 87% 29.80 in 6.2 mi WSW 18.4 mph - N/A Rain Rain
8:00 PM 44.6 °F 36.9 °F 42.8 °F 93% 29.80 in 5.0 mi WSW 18.4 mph - N/A Rain Rain
8:17 PM 44.6 °F 37.4 °F 42.8 °F 93% 29.80 in 6.2 mi WSW 16.1 mph - N/A Rain Light Rain
8:30 PM 44.6 °F 37.8 °F 42.8 °F 93% 29.80 in 6.2 mi WSW 15.0 mph 26.5 mph N/A   Drizzle
8:45 PM 44.6 °F 37.2 °F 42.8 °F 93% 29.80 in 4.3 mi West 17.3 mph - N/A Rain Light Rain
9:00 PM 44.6 °F 38.8 °F 42.8 °F 93% 29.80 in 5.6 mi West 11.5 mph - N/A Rain Light Rain
9:30 PM 44.6 °F 39.2 °F 41.0 °F 87% 29.80 in 6.2 mi West 10.4 mph 28.8 mph N/A   Mostly Cloudy
10:00 PM 42.8 °F 34.0 °F 35.6 °F 76% 29.80 in 6.2 mi West 20.7 mph - N/A Rain Light Rain
10:30 PM 42.8 °F 36.6 °F 35.6 °F 76% 29.80 in 6.2 mi West 11.5 mph 26.5 mph N/A   Mostly Cloudy
11:00 PM 42.8 °F 33.5 °F 33.8 °F 70% 29.80 in 6.2 mi West 23.0 mph 34.5 mph N/A   Scattered Clouds
11:30 PM 41.0 °F 30.7 °F 32.0 °F 70% 29.80 in 6.2 mi West 25.3 mph 43.7 mph N/A   Scattered Clouds